Overview Statistics Trail Chart Weather Telemetry Raw packets
 

This is the latest recevied weather packets stored in our database for station/object AA7VG. If no packets are shown the sender has not sent any weather packets the latest 10 day(s).

<< 14 15 16 17 18 19 20 >>
Time Temp. Humidity Pressure Rain* Wind** Luminosity Snow
1788514968 14.44° C 45% 1006.1 hPa 0 mm - - -
1788514665 15° C 47% 1006.3 hPa 0 mm - - -
1788514365 15° C 45% 1006.3 hPa 0 mm - - -
1788514060 15° C 45% 1006.4 hPa 0 mm - - -
1788513757 15° C 46% 1006.2 hPa 0 mm - - -
1788513453 15° C 46% 1006.4 hPa 0 mm - - -
1788513147 15° C 46% 1006.2 hPa 0 mm - - -
1788512843 15° C 47% 1006.4 hPa 0 mm - - -
1788512539 15.56° C 46% 1006.3 hPa 0 mm - - -
1788512239 15.56° C 45% 1006.5 hPa 0 mm - - -
1788511934 16.11° C 45% 1006.5 hPa 0 mm - - -
1788511629 16.67° C 43% 1006.5 hPa 0 mm - - -
1788511325 17.78° C 40% 1006.6 hPa 0 mm - - -
1788511021 19.44° C 36% 1006.9 hPa 0 mm - - -
1788510717 19.44° C 27% 1006.8 hPa 0 mm - - -
1788510412 19.44° C 29% 1007 hPa 0 mm - - -
1788510107 19.44° C 30% 1007 hPa 0 mm - - -
1788509802 19.44° C 30% 1006.9 hPa 0 mm - - -
1788509498 20° C 29% 1007.2 hPa 0 mm - - -
1788509193 20° C 28% 1006.9 hPa 0 mm - - -
1788508889 20° C 28% 1007.4 hPa 0 mm - - -
1788508585 19.44° C 30% 1007 hPa 0 mm - - -
1788508285 19.44° C 29% 1007.1 hPa 0 mm - - -
1788507984 18.89° C 30% 1007.3 hPa 0 mm - - -
1788507679 18.89° C 32% 1007.4 hPa 0 mm - - -

* Rain latest hour (hover to see other rain measurements)
** Current wind speed in m/s (hover to see current wind gust speed)